Buies Creek, NC

6:34 PM EDT on September 27, 2016 (GMT -0400)
Harnett County

Weather History for KHRJ - March, 2014

Change the Weather History Date:

Sunday, March 16, 2014

  Actual Average Record
Temperature  
Mean Temperature 49 °F -  
Max Temperature 57 °F 64 °F 87 °F (2002)
Min Temperature 41 °F 40 °F 18 °F (1993)
Degree Days  
Heating Degree Days 16    
Moisture  
Dew Point 40 °F    
Average Humidity 71    
Maximum Humidity 97    
Minimum Humidity 39    
Precipitation  
Precipitation 0.12 in - - ()
Sea Level Pressure  
Sea Level Pressure 29.96 in    
Wind  
Wind Speed 4 mph (ENE)    
Max Wind Speed 15 mph    
Max Gust Speed 23 mph    
Visibility 9 miles    
Events Rain    
Averages and records for this station are not official NWS values.
T = Trace of Precipitation, MM = Missing Value Source: NWS Daily Summary

Daily Weather History Graph

Daily Weather History Graph

Search for Another Location

Airport or City:

Trip Planner

Search our weather history database for the weather conditions in past years. The results will help you decide how hot, cold, wet, or windy it might be!

Date:

Astronomy

Mar. 16, 2014 Rise Set
Actual Time 7:24 AM EDT 7:23 PM EDT
Civil Twilight 6:58 AM EDT 7:48 PM EDT
Nautical Twilight 6:29 AM EDT 8:18 PM EDT
Astronomical Twilight 5:59 AM EDT 8:48 PM EDT
Moon 7:37 PM EDT (3/16) 7:07 AM EDT (3/16)
Length of Visible Light 12h 49m
Length of Day
11h 59m
Full, 100% of the Moon is Illuminated
Mar 16
Full
Mar 16
Full
Mar 23
Last Quarter
Mar 30
New
Apr 7
First Quarter

Hourly Weather History & Observations

Time (EDT) Temp. Windchill Dew Point Humidity Pressure Visibility Wind Dir Wind Speed Gust Speed Precip Events Conditions
12:15 AM 50.7 °F - 39.0 °F 64% 30.04 in 10.0 mi Calm Calm - N/A   Clear
12:35 AM 50.9 °F - 38.5 °F 62% 30.04 in 10.0 mi Calm Calm - N/A   Clear
12:55 AM 49.8 °F - 38.8 °F 66% 30.04 in 10.0 mi Calm Calm - N/A   Clear
1:15 AM 47.3 °F - 39.7 °F 75% 30.04 in 10.0 mi Calm Calm - N/A   Clear
1:35 AM 48.7 °F - 38.8 °F 69% 30.04 in 10.0 mi Calm Calm - N/A   Clear
1:55 AM 46.2 °F 45.0 °F 37.9 °F 73% 30.04 in 10.0 mi North 3.5 mph - N/A   Clear
2:15 AM 46.6 °F - 37.9 °F 72% 30.04 in 10.0 mi Calm Calm - N/A   Clear
2:35 AM 47.3 °F - 37.8 °F 69% 30.04 in 10.0 mi Calm Calm - N/A   Clear
2:55 AM 47.3 °F - 37.8 °F 69% 30.04 in 10.0 mi Calm Calm - N/A   Clear
3:15 AM 45.1 °F - 38.5 °F 77% 30.04 in 10.0 mi Calm Calm - N/A   Clear
3:35 AM 45.9 °F - 37.6 °F 73% 30.03 in 10.0 mi Calm Calm - N/A   Clear
3:55 AM 45.9 °F - 37.6 °F 73% 30.02 in 10.0 mi Calm Calm - N/A   Clear
4:15 AM 45.0 °F - 37.0 °F 74% 30.03 in 10.0 mi Calm Calm - N/A   Clear
4:35 AM 43.9 °F - 37.9 °F 80% 30.02 in 10.0 mi Calm Calm - N/A   Clear
4:55 AM 44.6 °F - 38.5 °F 79% 30.02 in 10.0 mi Calm Calm - N/A   Clear
5:15 AM 43.2 °F - 38.1 °F 82% 30.02 in 10.0 mi Calm Calm - N/A   Clear
5:35 AM 43.5 °F 40.1 °F 38.3 °F 82% 30.02 in 10.0 mi NE 5.8 mph - N/A   Clear
5:55 AM 46.0 °F 43.1 °F 37.2 °F 71% 30.02 in 10.0 mi NE 5.8 mph - N/A   Clear
6:15 AM 47.1 °F - 36.9 °F 68% 30.01 in 10.0 mi NE 5.8 mph - N/A   Clear
6:35 AM 48.2 °F - 35.6 °F 62% 30.00 in 10.0 mi NE 5.8 mph - N/A   Clear
6:55 AM 52.2 °F - 33.1 °F 48% 29.99 in 10.0 mi ENE 5.8 mph - N/A   Clear
7:15 AM 53.4 °F - 32.2 °F 44% 30.00 in 10.0 mi NE 6.9 mph - N/A   Clear
7:35 AM 53.2 °F - 32.4 °F 45% 29.99 in 10.0 mi NE 5.8 mph - N/A   Scattered Clouds
8:15 AM 53.8 °F - 32.4 °F 44% 30.01 in 10.0 mi ENE 6.9 mph - N/A   Overcast
8:35 AM 54.5 °F - 32.0 °F 42% 30.01 in 10.0 mi NE 9.2 mph - N/A   Overcast
8:55 AM 54.5 °F - 32.0 °F 42% 30.00 in 10.0 mi NE 8.1 mph - N/A   Overcast
9:15 AM 54.7 °F - 32.0 °F 42% 30.01 in 10.0 mi ENE 6.9 mph - N/A   Overcast
9:35 AM 55.4 °F - 32.0 °F 41% 30.01 in 10.0 mi ENE 9.2 mph - N/A   Overcast
9:55 AM 55.8 °F - 32.2 °F 41% 30.00 in 10.0 mi ENE 10.4 mph - N/A   Mostly Cloudy
10:15 AM 56.3 °F - 32.0 °F 40% 29.99 in 10.0 mi ENE 10.4 mph - N/A   Scattered Clouds
10:35 AM 56.7 °F - 32.0 °F 39% 29.99 in 10.0 mi East 6.9 mph - N/A   Mostly Cloudy
10:55 AM 56.8 °F - 32.2 °F 39% 30.00 in 10.0 mi East 8.1 mph - N/A   Overcast
11:15 AM 57.0 °F - 32.4 °F 39% 30.00 in 10.0 mi East 6.9 mph - N/A   Overcast
11:35 AM 56.7 °F - 33.1 °F 41% 30.02 in 10.0 mi SE 5.8 mph - N/A   Overcast
11:55 AM 56.5 °F - 35.4 °F 45% 30.03 in 10.0 mi ESE 3.5 mph - N/A Rain Rain
12:15 PM 55.6 °F - 38.5 °F 53% 30.03 in 10.0 mi Calm Calm - N/A Rain Light Rain
12:35 PM 54.0 °F - 42.8 °F 66% 30.04 in 10.0 mi Calm Calm - N/A Rain Light Rain
12:55 PM 53.2 °F - 45.5 °F 75% 30.03 in 10.0 mi East 3.5 mph - 0.01 in Rain Light Rain
1:15 PM 53.6 °F - 44.8 °F 72% 30.03 in 10.0 mi ENE 5.8 mph - 0.01 in Rain Light Rain
1:35 PM 53.6 °F - 44.8 °F 72% 30.02 in 10.0 mi NE 5.8 mph - 0.01 in   Light Drizzle
1:55 PM 53.1 °F - 43.2 °F 69% 30.01 in 10.0 mi ENE 5.8 mph - 0.01 in Rain Light Rain
2:15 PM 52.7 °F - 43.9 °F 72% 30.00 in 10.0 mi ENE 6.9 mph - 0.01 in Rain Light Rain
2:55 PM 52.5 °F - 42.8 °F 70% 29.97 in 10.0 mi ENE 8.1 mph - 0.01 in Rain Rain
3:15 PM 52.2 °F - 43.0 °F 71% 29.95 in 10.0 mi East 9.2 mph - N/A   Light Drizzle
3:35 PM 52.7 °F - 42.6 °F 69% 29.92 in 10.0 mi East 13.8 mph - N/A   Light Drizzle
3:55 PM 52.7 °F - 42.4 °F 68% 29.92 in 10.0 mi East 11.5 mph - N/A   Overcast
4:15 PM 52.7 °F - 43.3 °F 70% 29.91 in 10.0 mi East 10.4 mph - N/A Rain Light Rain
4:35 PM 52.0 °F - 43.9 °F 74% 29.90 in 10.0 mi East 8.1 mph - N/A   Light Drizzle
4:55 PM 52.0 °F - 44.6 °F 76% 29.89 in 10.0 mi ENE 6.9 mph - N/A Rain Light Rain
5:15 PM 52.2 °F - 44.2 °F 74% 29.90 in 10.0 mi ENE 9.2 mph - N/A   Overcast
5:35 PM 52.0 °F - 44.8 °F 76% 29.89 in 10.0 mi East 8.1 mph - N/A   Overcast
5:55 PM 51.8 °F - 45.5 °F 79% 29.87 in 7.0 mi ENE 9.2 mph - N/A   Light Drizzle
6:15 PM 51.3 °F - 46.4 °F 83% 29.86 in 10.0 mi ENE 8.1 mph - N/A   Overcast
6:35 PM 51.3 °F - 46.8 °F 85% 29.86 in 10.0 mi NE 8.1 mph - N/A   Overcast
6:55 PM 51.1 °F - 47.7 °F 88% 29.85 in 10.0 mi ENE 8.1 mph - N/A   Overcast
7:15 PM 50.7 °F - 48.9 °F 94% 29.84 in 10.0 mi ENE 10.4 mph 18.4 mph N/A   Overcast
7:35 PM 50.0 °F - 48.0 °F 93% 29.85 in 10.0 mi ENE 10.4 mph - N/A   Overcast
7:55 PM 49.5 °F - 47.7 °F 94% 29.84 in 10.0 mi East 12.7 mph - N/A   Overcast
8:15 PM 49.1 °F - 47.5 °F 94% 29.84 in 10.0 mi East 12.7 mph 21.9 mph N/A   Overcast
8:35 PM 48.6 °F - 46.9 °F 94% 29.85 in 7.0 mi East 12.7 mph 23.0 mph N/A Rain Light Rain
8:55 PM 48.2 °F - 46.8 °F 95% 29.86 in 7.0 mi NE 8.1 mph - N/A   Overcast
9:15 PM 47.1 °F - 45.9 °F 95% 29.85 in 7.0 mi ENE 11.5 mph - N/A Rain Rain
9:35 PM 46.4 °F 40.4 °F 45.5 °F 97% 29.85 in 7.0 mi NE 13.8 mph 19.6 mph N/A Rain Light Rain
9:55 PM 45.1 °F 39.9 °F 44.2 °F 97% 29.85 in 10.0 mi NE 10.4 mph 21.9 mph N/A   Overcast
10:15 PM 44.6 °F 40.2 °F 43.7 °F 97% 29.84 in 5.0 mi NE 8.1 mph - 0.02 in   Drizzle
10:35 PM 43.9 °F 37.5 °F 43.2 °F 97% 29.84 in 4.0 mi NE 12.7 mph - 0.03 in   Drizzle
10:55 PM 43.0 °F 37.2 °F 42.1 °F 97% 29.84 in 5.0 mi NNE 10.4 mph 20.7 mph 0.05 in Rain Rain
11:15 PM 41.9 °F 35.9 °F 41.0 °F 97% 29.84 in 5.0 mi ENE 10.4 mph 18.4 mph 0.02 in   Drizzle
11:35 PM 41.5 °F 33.8 °F 40.8 °F 97% 29.85 in 5.0 mi NE 15.0 mph 19.6 mph 0.03 in   Heavy Drizzle
11:55 PM 41.0 °F 36.4 °F 40.3 °F 97% 29.84 in 4.0 mi NNE 6.9 mph - 0.04 in   Drizzle